Cuero, Texas, United States (77954)
Lat: 29.09N, Lon: 97.29W
Wx Zone: TXZ224
Local Info
Past Weather Observations for Today

NOTE: This archive is for the closest National Weather Service station to Cuero. Information may differ from the station used for current weather conditions.

Click here for Long-term Archive

Time Weather Temperature Dewpoint Humidity Pressure Winds Precip Visibility
16:51
Clear
84°F / 29°C 57°F / 14°C 40% 30.09 in
(1019 mb)
SSE 10.4 mph
(SSE 17 kph)
- 10SM
15:51
Clear
88°F / 31°C 59°F / 15°C 38% 30.09 in
(1019 mb)
E 5.8 mph
(E 9 kph)
- 10SM
14:51
Clear
88°F / 31°C 57°F / 14°C 35% 30.09 in
(1019 mb)
Calm - 10SM
13:51
Clear
88°F / 31°C 59°F / 15°C 38% 30.09 in
(1019 mb)
ENE 5.8 mph
(ENE 9 kph)
- 10SM
12:51
Clear
86°F / 30°C 61°F / 16°C 43% 30.12 in
(1020 mb)
Calm - 10SM
11:51
Clear
82°F / 28°C 57°F / 14°C 42% 30.15 in
(1021 mb)
Variable 3.5 mph
(Variable 6 kph)
- 10SM
10:51
Clear
82°F / 28°C 59°F / 15°C 45% 30.18 in
(1022 mb)
Variable 3.5 mph
(Variable 6 kph)
- 10SM
09:51
Clear
79°F / 26°C 61°F / 16°C 54% 30.18 in
(1022 mb)
WNW 4.6 mph
(WNW 7 kph)
- 10SM
08:51
Clear
73°F / 23°C 63°F / 17°C 69% 30.18 in
(1022 mb)
NNW 4.6 mph
(NNW 7 kph)
- 10SM
07:51
Clear
Fog And Mist
66°F / 19°C 63°F / 17°C 88% 30.18 in
(1022 mb)
N 4.6 mph
(N 7 kph)
- 4SM
07:46
Clear
Fog And Mist
66°F / 19°C 63°F / 17°C 88% 30.18 in
(1022 mb)
N 3.5 mph
(N 6 kph)
- 3SM
07:24
Clear
Fog And Mist
63°F / 17°C 59°F / 15°C 88% 30.18 in
(1022 mb)
N 3.5 mph
(N 6 kph)
- 2SM
06:51
Clear
Fog And Mist
59°F / 15°C 55°F / 13°C 88% 30.15 in
(1021 mb)
N 4.6 mph
(N 7 kph)
- 1 1/2SM
06:41
Clear
Fog And Mist
57°F / 14°C 55°F / 13°C 94% 30.15 in
(1021 mb)
N 4.6 mph
(N 7 kph)
- 1 1/2SM
06:19
Clear
Fog And Mist
57°F / 14°C 55°F / 13°C 94% 30.15 in
(1021 mb)
N 4.6 mph
(N 7 kph)
- 2 1/2SM
05:51
Clear
Fog And Mist
57°F / 14°C 55°F / 13°C 94% 30.15 in
(1021 mb)
N 3.5 mph
(N 6 kph)
- 3SM
05:46
Clear
Fog And Mist
57°F / 14°C 55°F / 13°C 94% 30.15 in
(1021 mb)
N 3.5 mph
(N 6 kph)
- 3SM
05:33
Clear
Fog And Mist
59°F / 15°C 55°F / 13°C 88% 30.15 in
(1021 mb)
NNW 4.6 mph
(NNW 7 kph)
- 2 1/2SM
05:06
Clear
Fog And Mist
57°F / 14°C 55°F / 13°C 94% 30.15 in
(1021 mb)
NW 4.6 mph
(NW 7 kph)
- 1 3/4SM
04:51
Clear
Fog And Mist
59°F / 15°C 57°F / 14°C 94% 30.15 in
(1021 mb)
NNW 5.8 mph
(NNW 9 kph)
- 3SM
03:51
Clear
Fog And Mist
57°F / 14°C 54°F / 12°C 88% 30.12 in
(1020 mb)
WNW 5.8 mph
(WNW 9 kph)
- 4SM
02:51
Clear
Fog And Mist
57°F / 14°C 55°F / 13°C 94% 30.12 in
(1020 mb)
NW 5.8 mph
(NW 9 kph)
- 5SM
01:51
Clear
61°F / 16°C 55°F / 13°C 83% 30.12 in
(1020 mb)
Calm - 7SM
00:51
Clear
63°F / 17°C 57°F / 14°C 83% 30.15 in
(1021 mb)
Calm - 9SM
Time Weather Temperature Dewpoint Humidity Pressure Winds Precip Visibility


Weather for websites

WeatherForYou.com, LLC is not responsible for any damages or problems caused by this service. Current weather conditions are obtained from the closest station including government and personal stations which may have varying degrees of accuracy. Weather forecasts are derived from the NOAA NDFD. Like all things, this site belongs to Jesus Christ... He just trusts me to maintain it. If you have any questions or comments email webmaster@weatherforyou.com

Copyright © 2014, WeatherForYou.com LLC. All rights reserved.